Torna al catalogo

STARLINK-33971

AttivoComunicazioniVLEO
NORAD 63932·PAYLOAD·🇺🇸 United States

Lanciato May 13, 2025 da Vandenberg Space Force Base

Loading…

Prossimi Passaggi (prossime 24 ore)

TLE

AggiornatoSource: CelesTrak SupGP

Epoca: Sep 15, 2026, 02:43 UTC

1 63932C 25098G   26258.11368056  .00013761  00000+0  47868-3 0  2581
2 63932  70.0001 155.3486 0003281 273.1953 107.0484 15.29574190    17

Traccia STARLINK-33971 in tempo reale con AllMySat

Download on the App Store